Regional Weather Roundup
Issued by NWS Charleston, SC

Current Version | Previous Version | Text Only | Print | Product List | Glossary Off
Versions: 1 2 3 4 5 6 7 8 9 10 11 12 13 14 15 16 17 18 19 20 21 22 23 24 25 26 27 28 29 30 31 32 33 34 35 36 37 38 39 40 41 42 43 44 45 46 47 48 49 50
000 ASUS42 KCHS 200239 RWRCHS REGIONAL WEATHER ROUNDUP NATIONAL WEATHER SERVICE CHARLESTON SC 1000 PM EDT TUE SEP 19 2017 NOTE: "FAIR" INDICATES FEW OR NO CLOUDS BELOW 12,000 FEET WITH NO SIGNIFICANT WEATHER AND/OR OBSTRUCTIONS TO VISIBILITY. NOT ALL STATIONS ARE QUALITY CONTROLLED. USE DATA WITH CAUTION... ESPECIALLY DEWPOINT OBSERVATIONS. SCZ027-030-031-034>040-042>050-200300- ...SOUTHEAST SOUTH CAROLINA... CITY SKY/WX TMP DP RH WIND PRES REMARKS N CHARLESTON CLEAR 75 72 90 SW6 29.98R WATERFRONT PRK N/A 79 73 82 VRB2 29.82R JOHNS ISLAND FAIR 75 73 94 CALM 29.98S PINOPOLIS N/A 77 70 78 CALM 29.90R MONCKS CORNER FAIR 70 68 94 CALM 29.98S SUMMERVILLE FAIR 72 70 94 CALM 29.99S BEAUFORT MCAS CLEAR 79 75 87 S3 29.98S BEAUFORT ARPT FAIR 77 72 83 SW5 29.98S HILTON HEAD IS CLEAR 77 73 88 CALM 29.99R WALTERBORO CLEAR 73 72 94 CALM 29.98F ALLENDALE NOT AVBL ...SOUTHERN MIDLANDS AND PEE DEE... CITY SKY/WX TMP DP RH WIND PRES REMARKS GEORGETOWN FAIR 68 68 100 CALM 29.98S KINGSTREE FAIR 68 64 88 CALM 29.97S ORANGEBURG CLEAR 73 70 90 CALM 29.98R BARNWELL FAIR 75 72 88 CALM 29.97F AIKEN FAIR 70 68 94 SE3 30.01F MANNING FAIR 70 63 78 CALM 29.98R COLUMBIA CLEAR 76 68 76 S3 29.97R SUMTER CLEAR 74 67 78 CALM 29.96R FLORENCE CLEAR 72 69 90 CALM 29.97R MYRTLE BEACH CLEAR 72 68 87 CALM 29.97S N MYRTLE BEACH CLEAR 72 70 93 CALM 29.96R $$ GAZ063-065-086>088-099>101-113>116-118-119-134>141-150-200300- ...SOUTHEAST GEORGIA... CITY SKY/WX TMP DP RH WIND PRES REMARKS SAVANNAH ARPT CLEAR 77 71 82 S6 29.98R HUNTER AAF CLEAR 78 71 80 SE3 29.96R FORT STEWART CLEAR 76 71 82 SE3 29.96R STATESBORO CLEAR 73 70 90 CALM 29.97S SYLVANIA CLEAR 74 73 94 CALM 29.98F CLAXTON FAIR 74 73 96 CALM 29.97S ...CSRA...CENTRAL AND FAR SOUTHEAST GEORGIA... CITY SKY/WX TMP DP RH WIND PRES REMARKS THOMSON CLEAR 72 71 95 CALM 30.02S AUGUSTA-BUSH CLEAR 73 71 93 CALM 29.95F AUGUSTA-DANIEL CLEAR 81 69 67 E5 29.98S SWAINSBORO FAIR 73 72 94 CALM 29.98S VIDALIA CLEAR 75 72 88 CALM 29.98R EASTMAN FAIR 74 74 100 CALM 30.00S HAZLEHURST FAIR 76 65 70 CALM 29.97R ALMA CLEAR 73 70 90 CALM 29.97R WAYCROSS CLEAR 75 71 86 SE6 29.97S JESUP NOT AVBL BAXLEY FAIR 75 70 83 S3 29.97S BRUNSWICK CLEAR 79 70 73 S3 29.99R SAINT SIMONS CLEAR 80 72 76 S6 29.98R $$ SCZ027-028-034-036>038-045-046-048>050-GAZ119-141-200300- ...LAKE AND SUPPLEMENTAL COASTAL OBSERVATIONS... STATION/POSITION TIME TEMP WIND PRES WAVE SWELL AIR SEA DIR/SP/G HT/PER HT/PER/DIR (UTC) (F) (DEG/KT/KT) (MB) (FT/S) (FT/S/D) WINYAH BAY 0145 74 290/ 1 1015.0S LAKE MURRAY 0220 77 CALM 1013.9 ACE BASIN NERRS 0145 75 CALM 1015.0S FORT PULASKI 0200 79 80 200/ 3/ 5 1015.6 SAPELO ISLAND 0200 80 CALM 1015.0 $$ ANZ835-935-AMZ111-154-330-350-352-354-370-450-454-472-200300- ...C-MAN AND BUOY OBSERVATIONS... STATION/POSITION TIME TEMP WIND PRES WAVE SWELL AIR SEA DIR/SP/G HT/PER HT/PER/DIR (UTC) (F) (DEG/KT/KT) (MB) (FT/S) (FT/S/D) BUOY 41004 0210 80 83 240/ 4/ 8 1014.6 BUOY 41008 0150 80 80 140/ 8/ 10 1014.9R 3/10 3/ 80/10 FOLLY BEACH CMAN 0200 79 220/ 7/ 9 1015.8R CAPERS NEARSHORE 0208 77 80 240/ 8/ 12 1014.7R FRIPP NEARSHORE 0208 79 210/ 8/ 10 1020.1F STATION/POSITION TIME TEMP WIND PRES WAVE SWELL AIR SEA DIR/SP/G HT/PER HT/PER/DIR (UTC) (F) (DEG/KT/KT) (MB) (FT/S) (FT/S/D) 5E ST. MARYS GA 0200 82 N/A 3/13 2/ 70/13 FRYING PAN BUOY 0210 81 82 270/ 10/ 14 1014.1 BUOY 41025 0150 75 74 330/ 17/ 21 1011.9R 7/11 5/ 40/11 CAPE LOOKOUT NC 0200 75 CALM / 1 1013.4R BUOY 41002 0150 79 80 300/ 8/ 10 1014.4R 10/11 10/ 30/11 BUOY 41010 0210 84 50/ 2/ 6 1015.4 ST AUGUSTINE FL 0200 81 83 130/ 9/ 11 1015.9R $$

USA.gov is the U.S. government's official web portal to all federal, state and local government web resources and services.